| time (UTC) | temp F | wind direction | speed knots | gust knots | rain 1hr in | rain 24hr in | rain mn in | humidity % | barometer mb |
| 20260505070008 | 60 | 304 | 1.7 | 4.3 | 0.00 | 0.01 | 0.01 | 76 | 1021.9 |
| 20260505064530 | 0 | 0.0 | 0.0 | 0.00 | 0.00 | 0.00 | 1022.7 | ||
| 20260505064521 | 60 | 264 | 3.5 | 6.1 | 0.00 | 0.01 | 0.01 | 76 | 1021.7 |
| 20260505063031 | 0 | 0.0 | 0.0 | 0.00 | 0.00 | 0.00 | 1022.6 | ||
| 20260505063006 | 60 | 290 | 3.5 | 7.0 | 0.00 | 0.01 | 0.01 | 75 | 1021.6 |
| 20260505061532 | 0 | 0.0 | 0.0 | 0.00 | 0.00 | 0.00 | 1022.5 | ||
| 20260505061512 | 61 | 267 | 2.6 | 6.1 | 0.00 | 0.01 | 0.01 | 74 | 1021.5 |
| 20260505060030 | 0 | 0.0 | 0.0 | 0.00 | 0.00 | 0.00 | 1022.5 | ||
| 20260505060007 | 61 | 274 | 2.6 | 6.1 | 0.00 | 0.01 | 0.01 | 73 | 1021.5 |
| 20260505054547 | 0 | 0.0 | 0.0 | 0.00 | 0.00 | 0.00 | 1022.4 | ||
| 20260505054505 | 61 | 226 | 3.5 | 8.7 | 0.00 | 0.02 | 0.01 | 72 | 1021.4 |
| 20260505053042 | 0 | 0.0 | 0.0 | 0.00 | 0.00 | 0.00 | 1022.4 | ||
| 20260505053005 | 61 | 244 | 3.5 | 7.8 | 0.00 | 0.02 | 0.01 | 72 | 1021.3 |
| 20260505051537 | 0 | 0.0 | 0.0 | 0.00 | 0.00 | 0.00 | 1022.3 | ||
| 20260505051505 | 61 | 234 | 0.9 | 7.0 | 0.00 | 0.02 | 0.01 | 73 | 1021.3 |
| 20260505041558 | 60 | 254 | 3.5 | 8.7 | 0.00 | 0.05 | 0.01 | 73 | 1021.3 |
| 20260505041531 | 0 | 0.0 | 0.0 | 0.00 | 0.00 | 0.00 | 1022.2 | ||
| 20260505040055 | 60 | 232 | 4.3 | 7.8 | 0.00 | 0.05 | 0.01 | 74 | 1021.2 |
| 20260505040040 | 0 | 0.0 | 0.0 | 0.00 | 0.00 | 0.00 | 1022.1 | ||
| 20260505034550 | 60 | 240 | 3.5 | 7.8 | 0.00 | 0.05 | 0.01 | 73 | 1021.2 |
| 20260505034530 | 0 | 0.0 | 0.0 | 0.00 | 0.00 | 0.00 | 1022.2 | ||
| 20260505033049 | 59 | 231 | 2.6 | 7.8 | 0.00 | 0.05 | 0.01 | 73 | 1021.4 |
| 20260505033040 | 0 | 0.0 | 0.0 | 0.00 | 0.00 | 0.00 | 1022.2 | ||
| 20260505031559 | 59 | 236 | 5.2 | 8.7 | 0.00 | 0.05 | 0.01 | 73 | 1021.6 |
| 20260505031533 | 0 | 0.0 | 0.0 | 0.00 | 0.00 | 0.00 | 1022.3 | ||
| 20260505030043 | 59 | 223 | 3.5 | 10.4 | 0.00 | 0.05 | 0.01 | 73 | 1021.7 |
| 20260505030029 | 0 | 0.0 | 0.0 | 0.00 | 0.00 | 0.00 | 1022.4 | ||
| 20260505024543 | 59 | 263 | 5.2 | 11.3 | 0.00 | 0.11 | 0.01 | 72 | 1021.8 |
| 20260505024530 | 0 | 0.0 | 0.0 | 0.00 | 0.00 | 0.00 | 1022.5 | ||
| 20260505023041 | 59 | 221 | 2.6 | 7.0 | 0.00 | 0.11 | 0.01 | 72 | 1022.0 |
| 20260505023032 | 0 | 0.0 | 0.0 | 0.00 | 0.00 | 0.00 | 1022.7 | ||
| 20260505021541 | 59 | 252 | 3.5 | 7.8 | 0.00 | 0.11 | 0.01 | 72 | 1022.0 |
| 20260505021532 | 0 | 0.0 | 0.0 | 0.00 | 0.00 | 0.00 | 1022.9 | ||
| 20260505020040 | 59 | 228 | 3.5 | 7.0 | 0.00 | 0.11 | 0.01 | 74 | 1022.1 |
| 20260505020030 | 0 | 0.0 | 0.0 | 0.00 | 0.00 | 0.00 | 1023.0 | ||
| 20260505014538 | 58 | 242 | 3.5 | 7.8 | 0.00 | 0.11 | 0.01 | 75 | 1022.2 |
| 20260505014530 | 0 | 0.0 | 0.0 | 0.00 | 0.00 | 0.00 | 1023.0 | ||
| 20260505013034 | 57 | 254 | 3.5 | 7.8 | 0.00 | 0.11 | 0.01 | 77 | 1022.3 |
| 20260505013029 | 0 | 0.0 | 0.0 | 0.00 | 0.00 | 0.00 | 1023.0 | ||
| 20260505011534 | 56 | 236 | 2.6 | 7.0 | 0.01 | 0.11 | 0.01 | 81 | 1022.3 |
| 20260505011530 | 0 | 0.0 | 0.0 | 0.00 | 0.00 | 0.00 | 1023.0 | ||
| 20260505010030 | 0 | 0.0 | 0.0 | 0.00 | 0.00 | 0.00 | 1023.1 | ||
| 20260505010027 | 55 | 257 | 3.5 | 6.1 | 0.01 | 0.11 | 0.01 | 84 | 1022.3 |
| 20260505004541 | 55 | 235 | 5.2 | 10.4 | 0.01 | 0.11 | 0.01 | 85 | 1022.3 |
| 20260505004533 | 0 | 0.0 | 0.0 | 0.00 | 0.00 | 0.00 | 1023.0 | ||
| 20260505003032 | 0 | 0.0 | 0.0 | 0.00 | 0.00 | 0.00 | 1023.0 | ||
| 20260505003022 | 54 | 252 | 4.3 | 7.8 | 0.01 | 0.11 | 0.01 | 89 | 1022.3 |
| 20260505001532 | 0 | 0.0 | 0.0 | 0.00 | 0.00 | 0.00 | 1022.9 | ||
| 20260505001520 | 54 | 219 | 4.3 | 9.6 | 0.00 | 0.10 | 0.00 | 92 | 1022.2 |
| 20260505000034 | 53 | 218 | 6.1 | 11.3 | 0.00 | 0.10 | 0.00 | 93 | 1022.1 |
| 20260504234530 | 0 | 0.0 | 0.0 | 0.00 | 0.00 | 0.00 | 1022.7 | ||
| 20260504234514 | 54 | 221 | 3.5 | 7.8 | 0.00 | 0.11 | 0.00 | 95 | 1022.1 |
| 20260504233032 | 0 | 0.0 | 0.0 | 0.00 | 0.00 | 0.00 | 1022.6 | ||
| 20260504233012 | 53 | 227 | 2.6 | 7.8 | 0.00 | 0.11 | 0.00 | 96 | 1021.9 |
| 20260504231532 | 0 | 0.0 | 0.0 | 0.00 | 0.00 | 0.00 | 1022.2 | ||
| 20260504231509 | 53 | 229 | 3.5 | 7.8 | 0.00 | 0.11 | 0.00 | 96 | 1021.6 |
| 20260504230032 | 0 | 0.0 | 0.0 | 0.00 | 0.00 | 0.00 | 1022.3 | ||
| 20260504230006 | 52 | 246 | 3.5 | 6.1 | 0.00 | 0.11 | 0.00 | 96 | 1021.5 |
| 20260504224530 | 0 | 0.0 | 0.0 | 0.00 | 0.00 | 0.00 | 1021.9 | ||
| 20260504224503 | 52 | 265 | 2.6 | 5.2 | 0.00 | 0.11 | 0.00 | 96 | 1021.3 |
| 20260504223029 | 0 | 0.0 | 0.0 | 0.00 | 0.00 | 0.00 | 1021.7 | ||
| 20260504223001 | 52 | 230 | 1.7 | 4.3 | 0.00 | 0.11 | 0.00 | 96 | 1021.1 |
| 20260504221606 | 52 | 229 | 0.9 | 4.3 | 0.00 | 0.11 | 0.00 | 96 | 1021.0 |
| 20260504221530 | 0 | 0.0 | 0.0 | 0.00 | 0.00 | 0.00 | 1021.6 | ||
| 20260504220100 | 51 | 244 | 0.9 | 3.5 | 0.00 | 0.11 | 0.00 | 95 | 1020.9 |
| 20260504220032 | 0 | 0.0 | 0.0 | 0.00 | 0.00 | 0.00 | 1021.5 | ||
| 20260504214557 | 52 | 230 | 2.6 | 7.0 | 0.00 | 0.11 | 0.00 | 96 | 1020.6 |
| 20260504214535 | 0 | 0.0 | 0.0 | 0.00 | 0.00 | 0.00 | 1021.3 | ||
| 20260504213053 | 51 | 240 | 2.6 | 9.6 | 0.00 | 0.11 | 0.00 | 95 | 1020.4 |
| 20260504213030 | 0 | 0.0 | 0.0 | 0.00 | 0.00 | 0.00 | 1021.0 | ||
| 20260504211550 | 51 | 209 | 5.2 | 9.6 | 0.00 | 0.11 | 0.00 | 96 | 1020.1 |
| 20260504211531 | 0 | 0.0 | 0.0 | 0.00 | 0.00 | 0.00 | 1020.9 | ||
| 20260504210048 | 51 | 240 | 3.5 | 7.8 | 0.00 | 0.11 | 0.00 | 96 | 1019.9 |
| 20260504210031 | 0 | 0.0 | 0.0 | 0.00 | 0.00 | 0.00 | 1020.6 | ||
| 20260504204543 | 51 | 248 | 2.6 | 7.0 | 0.00 | 0.11 | 0.00 | 95 | 1019.7 |
| 20260504204532 | 0 | 0.0 | 0.0 | 0.00 | 0.00 | 0.00 | 1020.5 | ||
| 20260504203042 | 51 | 265 | 1.7 | 4.3 | 0.00 | 0.11 | 0.00 | 95 | 1019.6 |
| 20260504203033 | 0 | 0.0 | 0.0 | 0.00 | 0.00 | 0.00 | 1020.3 | ||
| 20260504201541 | 50 | 223 | 2.6 | 6.1 | 0.00 | 0.11 | 0.00 | 95 | 1019.6 |
| 20260504201529 | 0 | 0.0 | 0.0 | 0.00 | 0.00 | 0.00 | 1020.2 | ||
| 20260504200040 | 50 | 221 | 4.3 | 7.8 | 0.00 | 0.11 | 0.00 | 95 | 1019.4 |
| 20260504194539 | 50 | 236 | 4.3 | 7.8 | 0.00 | 0.11 | 0.00 | 96 | 1019.4 |
| 20260504194533 | 0 | 0.0 | 0.0 | 0.00 | 0.00 | 0.00 | 1020.1 | ||
| 20260504193036 | 49 | 265 | 4.3 | 7.8 | 0.00 | 0.11 | 0.00 | 95 | 1019.2 |
| 20260504193032 | 0 | 0.0 | 0.0 | 0.00 | 0.00 | 0.00 | 1019.8 | ||
| 20260504191546 | 0 | 0.0 | 0.0 | 0.00 | 0.00 | 0.00 | 1019.7 | ||
| 20260504191539 | 49 | 265 | 3.5 | 5.2 | 0.00 | 0.11 | 0.00 | 95 | 1019.0 |
| 20260504190031 | 0 | 0.0 | 0.0 | 0.00 | 0.00 | 0.00 | 1019.5 | ||
| 20260504184538 | 0 | 0.0 | 0.0 | 0.00 | 0.00 | 0.00 | 1019.4 | ||
| 20260504184529 | 48 | 244 | 1.7 | 4.3 | 0.00 | 0.11 | 0.00 | 95 | 1018.7 |
| 20260504183040 | 0 | 0.0 | 0.0 | 0.00 | 0.00 | 0.00 | 1019.3 | ||
| 20260504183028 | 48 | 296 | 2.6 | 7.0 | 0.00 | 0.11 | 0.00 | 95 | 1018.6 |
| 20260504181532 | 0 | 0.0 | 0.0 | 0.00 | 0.00 | 0.00 | 1019.0 | ||
| 20260504181529 | 48 | 283 | 1.7 | 4.3 | 0.00 | 0.11 | 0.00 | 95 | 1018.4 |
| 20260504180030 | 0 | 0.0 | 0.0 | 0.00 | 0.00 | 0.00 | 1019.1 | ||
| 20260504180025 | 48 | 309 | 3.5 | 6.1 | 0.00 | 0.11 | 0.00 | 95 | 1018.6 |
| 20260504174531 | 0 | 0.0 | 0.0 | 0.00 | 0.00 | 0.00 | 1019.1 | ||
| 20260504174522 | 48 | 309 | 1.7 | 4.3 | 0.00 | 0.11 | 0.00 | 95 | 1018.4 |
| 20260504173030 | 0 | 0.0 | 0.0 | 0.00 | 0.00 | 0.00 | 1019.1 | ||
| 20260504173021 | 48 | 307 | 1.7 | 3.5 | 0.00 | 0.11 | 0.00 | 94 | 1018.4 |
| 20260504171531 | 0 | 0.0 | 0.0 | 0.00 | 0.00 | 0.00 | 1019.0 | ||
| 20260504171519 | 49 | 321 | 2.6 | 4.3 | 0.00 | 0.11 | 0.00 | 94 | 1018.4 |
| 20260504081534 | 0 | 0.0 | 0.0 | 0.00 | 0.00 | 0.00 | 1014.8 | ||
| 20260504081518 | 56 | 245 | 6.1 | 13.9 | 0.00 | 0.11 | 0.11 | 86 | 1013.9 |